<?xml version="1.0"?>
<gpx xmlns="http://www.topografix.com/GPX/1/1" xmlns:xsi="http://www.w3.org/2001/XMLSchema-instance" version="1.1" creator="GPX RubyGem 1.0.0 -- http://dougfales.github.io/gpx/" xsi:schemaLocation="http://www.topografix.com/GPX/1/1 http://www.topografix.com/GPX/1/1/gpx.xsd">
  <metadata>
    <name/>
    <time>2026-05-07T08:35:13+00:00</time>
    <bound minlat="90.0" minlon="180.0" maxlat="-90.0" maxlon="-180.0"/>
  </metadata>
  <trk>
    <name/>
    <trkseg>
      <trkpt lat="46.886422" lon="10.711723">
        <time>1970-01-01T00:00:00+00:00</time>
        <ele>2334.0</ele>
      </trkpt>
      <trkpt lat="46.886457" lon="10.711635">
        <time>1970-01-01T00:00:00+00:00</time>
        <ele>2335.0</ele>
      </trkpt>
      <trkpt lat="46.886551" lon="10.711557">
        <time>1970-01-01T00:00:00+00:00</time>
        <ele>2336.0</ele>
      </trkpt>
      <trkpt lat="46.886547" lon="10.711085">
        <time>1970-01-01T00:00:00+00:00</time>
        <ele>2343.0</ele>
      </trkpt>
      <trkpt lat="46.886496" lon="10.710801">
        <time>1970-01-01T00:00:00+00:00</time>
        <ele>2346.0</ele>
      </trkpt>
      <trkpt lat="46.886606" lon="10.710361">
        <time>1970-01-01T00:00:00+00:00</time>
        <ele>2351.0</ele>
      </trkpt>
      <trkpt lat="46.886534" lon="10.710165">
        <time>1970-01-01T00:00:00+00:00</time>
        <ele>2352.0</ele>
      </trkpt>
      <trkpt lat="46.886389" lon="10.710103">
        <time>1970-01-01T00:00:00+00:00</time>
        <ele>2353.0</ele>
      </trkpt>
      <trkpt lat="46.886449" lon="10.709677">
        <time>1970-01-01T00:00:00+00:00</time>
        <ele>2359.0</ele>
      </trkpt>
      <trkpt lat="46.886461" lon="10.709596">
        <time>1970-01-01T00:00:00+00:00</time>
        <ele>2360.0</ele>
      </trkpt>
      <trkpt lat="46.886695" lon="10.709065">
        <time>1970-01-01T00:00:00+00:00</time>
        <ele>2369.0</ele>
      </trkpt>
      <trkpt lat="46.886624" lon="10.709004">
        <time>1970-01-01T00:00:00+00:00</time>
        <ele>2369.0</ele>
      </trkpt>
      <trkpt lat="46.886679" lon="10.708848">
        <time>1970-01-01T00:00:00+00:00</time>
        <ele>2372.0</ele>
      </trkpt>
      <trkpt lat="46.886694" lon="10.708301">
        <time>1970-01-01T00:00:00+00:00</time>
        <ele>2379.0</ele>
      </trkpt>
      <trkpt lat="46.886728" lon="10.707756">
        <time>1970-01-01T00:00:00+00:00</time>
        <ele>2388.0</ele>
      </trkpt>
      <trkpt lat="46.886796" lon="10.707555">
        <time>1970-01-01T00:00:00+00:00</time>
        <ele>2393.0</ele>
      </trkpt>
      <trkpt lat="46.88691" lon="10.707475">
        <time>1970-01-01T00:00:00+00:00</time>
        <ele>2397.0</ele>
      </trkpt>
      <trkpt lat="46.88687" lon="10.707244">
        <time>1970-01-01T00:00:00+00:00</time>
        <ele>2402.0</ele>
      </trkpt>
      <trkpt lat="46.886716" lon="10.707131">
        <time>1970-01-01T00:00:00+00:00</time>
        <ele>2402.0</ele>
      </trkpt>
      <trkpt lat="46.886716" lon="10.706949">
        <time>1970-01-01T00:00:00+00:00</time>
        <ele>2408.0</ele>
      </trkpt>
      <trkpt lat="46.887013" lon="10.706649">
        <time>1970-01-01T00:00:00+00:00</time>
        <ele>2424.0</ele>
      </trkpt>
      <trkpt lat="46.887013" lon="10.706557">
        <time>1970-01-01T00:00:00+00:00</time>
        <ele>2428.0</ele>
      </trkpt>
      <trkpt lat="46.887086" lon="10.706547">
        <time>1970-01-01T00:00:00+00:00</time>
        <ele>2430.0</ele>
      </trkpt>
      <trkpt lat="46.887152" lon="10.706262">
        <time>1970-01-01T00:00:00+00:00</time>
        <ele>2441.0</ele>
      </trkpt>
      <trkpt lat="46.886966" lon="10.705892">
        <time>1970-01-01T00:00:00+00:00</time>
        <ele>2450.0</ele>
      </trkpt>
      <trkpt lat="46.886669" lon="10.705892">
        <time>1970-01-01T00:00:00+00:00</time>
        <ele>2449.0</ele>
      </trkpt>
      <trkpt lat="46.88661" lon="10.705725">
        <time>1970-01-01T00:00:00+00:00</time>
        <ele>2451.0</ele>
      </trkpt>
      <trkpt lat="46.8875" lon="10.704109">
        <time>1970-01-01T00:00:00+00:00</time>
        <ele>2494.0</ele>
      </trkpt>
      <trkpt lat="46.88761" lon="10.704163">
        <time>1970-01-01T00:00:00+00:00</time>
        <ele>2497.0</ele>
      </trkpt>
      <trkpt lat="46.888079" lon="10.703419">
        <time>1970-01-01T00:00:00+00:00</time>
        <ele>2514.0</ele>
      </trkpt>
      <trkpt lat="46.88888" lon="10.702979">
        <time>1970-01-01T00:00:00+00:00</time>
        <ele>2529.0</ele>
      </trkpt>
      <trkpt lat="46.889021" lon="10.702581">
        <time>1970-01-01T00:00:00+00:00</time>
        <ele>2535.0</ele>
      </trkpt>
      <trkpt lat="46.889323" lon="10.702124">
        <time>1970-01-01T00:00:00+00:00</time>
        <ele>2542.0</ele>
      </trkpt>
      <trkpt lat="46.890348" lon="10.70139">
        <time>1970-01-01T00:00:00+00:00</time>
        <ele>2556.0</ele>
      </trkpt>
      <trkpt lat="46.890576" lon="10.701103">
        <time>1970-01-01T00:00:00+00:00</time>
        <ele>2554.0</ele>
      </trkpt>
      <trkpt lat="46.890828" lon="10.700436">
        <time>1970-01-01T00:00:00+00:00</time>
        <ele>2550.0</ele>
      </trkpt>
      <trkpt lat="46.89132" lon="10.700342">
        <time>1970-01-01T00:00:00+00:00</time>
        <ele>2552.0</ele>
      </trkpt>
      <trkpt lat="46.891872" lon="10.699714">
        <time>1970-01-01T00:00:00+00:00</time>
        <ele>2553.0</ele>
      </trkpt>
      <trkpt lat="46.89198" lon="10.699666">
        <time>1970-01-01T00:00:00+00:00</time>
        <ele>2553.0</ele>
      </trkpt>
      <trkpt lat="46.892033" lon="10.699738">
        <time>1970-01-01T00:00:00+00:00</time>
        <ele>2556.0</ele>
      </trkpt>
      <trkpt lat="46.892745" lon="10.698848">
        <time>1970-01-01T00:00:00+00:00</time>
        <ele>2576.0</ele>
      </trkpt>
      <trkpt lat="46.892696" lon="10.698111">
        <time>1970-01-01T00:00:00+00:00</time>
        <ele>2581.0</ele>
      </trkpt>
      <trkpt lat="46.892439" lon="10.696852">
        <time>1970-01-01T00:00:00+00:00</time>
        <ele>2595.0</ele>
      </trkpt>
      <trkpt lat="46.892172" lon="10.696102">
        <time>1970-01-01T00:00:00+00:00</time>
        <ele>2620.0</ele>
      </trkpt>
      <trkpt lat="46.892162" lon="10.695968">
        <time>1970-01-01T00:00:00+00:00</time>
        <ele>2624.0</ele>
      </trkpt>
      <trkpt lat="46.89236" lon="10.695894">
        <time>1970-01-01T00:00:00+00:00</time>
        <ele>2637.0</ele>
      </trkpt>
      <trkpt lat="46.892343" lon="10.695779">
        <time>1970-01-01T00:00:00+00:00</time>
        <ele>2640.0</ele>
      </trkpt>
      <trkpt lat="46.892436" lon="10.695799">
        <time>1970-01-01T00:00:00+00:00</time>
        <ele>2644.0</ele>
      </trkpt>
      <trkpt lat="46.892375" lon="10.695486">
        <time>1970-01-01T00:00:00+00:00</time>
        <ele>2651.0</ele>
      </trkpt>
      <trkpt lat="46.892493" lon="10.69557">
        <time>1970-01-01T00:00:00+00:00</time>
        <ele>2653.0</ele>
      </trkpt>
      <trkpt lat="46.892437" lon="10.695067">
        <time>1970-01-01T00:00:00+00:00</time>
        <ele>2666.0</ele>
      </trkpt>
      <trkpt lat="46.892441" lon="10.694261">
        <time>1970-01-01T00:00:00+00:00</time>
        <ele>2684.0</ele>
      </trkpt>
      <trkpt lat="46.89221" lon="10.693274">
        <time>1970-01-01T00:00:00+00:00</time>
        <ele>2710.0</ele>
      </trkpt>
      <trkpt lat="46.892121" lon="10.692631">
        <time>1970-01-01T00:00:00+00:00</time>
        <ele>2725.0</ele>
      </trkpt>
      <trkpt lat="46.892159" lon="10.692517">
        <time>1970-01-01T00:00:00+00:00</time>
        <ele>2728.0</ele>
      </trkpt>
      <trkpt lat="46.892098" lon="10.69246">
        <time>1970-01-01T00:00:00+00:00</time>
        <ele>2727.0</ele>
      </trkpt>
      <trkpt lat="46.892068" lon="10.692243">
        <time>1970-01-01T00:00:00+00:00</time>
        <ele>2730.0</ele>
      </trkpt>
      <trkpt lat="46.892159" lon="10.691802">
        <time>1970-01-01T00:00:00+00:00</time>
        <ele>2738.0</ele>
      </trkpt>
      <trkpt lat="46.892168" lon="10.691525">
        <time>1970-01-01T00:00:00+00:00</time>
        <ele>2742.0</ele>
      </trkpt>
      <trkpt lat="46.892238" lon="10.691252">
        <time>1970-01-01T00:00:00+00:00</time>
        <ele>2747.0</ele>
      </trkpt>
      <trkpt lat="46.892247" lon="10.690832">
        <time>1970-01-01T00:00:00+00:00</time>
        <ele>2752.0</ele>
      </trkpt>
      <trkpt lat="46.891957" lon="10.690648">
        <time>1970-01-01T00:00:00+00:00</time>
        <ele>2751.0</ele>
      </trkpt>
      <trkpt lat="46.891849" lon="10.690033">
        <time>1970-01-01T00:00:00+00:00</time>
        <ele>2766.0</ele>
      </trkpt>
      <trkpt lat="46.891878" lon="10.689705">
        <time>1970-01-01T00:00:00+00:00</time>
        <ele>2771.0</ele>
      </trkpt>
      <trkpt lat="46.891297" lon="10.689452">
        <time>1970-01-01T00:00:00+00:00</time>
        <ele>2772.0</ele>
      </trkpt>
      <trkpt lat="46.891279" lon="10.68897">
        <time>1970-01-01T00:00:00+00:00</time>
        <ele>2777.0</ele>
      </trkpt>
      <trkpt lat="46.891385" lon="10.68853">
        <time>1970-01-01T00:00:00+00:00</time>
        <ele>2780.0</ele>
      </trkpt>
      <trkpt lat="46.891786" lon="10.688105">
        <time>1970-01-01T00:00:00+00:00</time>
        <ele>2790.0</ele>
      </trkpt>
      <trkpt lat="46.892316" lon="10.686992">
        <time>1970-01-01T00:00:00+00:00</time>
        <ele>2800.0</ele>
      </trkpt>
      <trkpt lat="46.892389" lon="10.68681">
        <time>1970-01-01T00:00:00+00:00</time>
        <ele>2801.0</ele>
      </trkpt>
      <trkpt lat="46.892389" lon="10.68681">
        <time>1970-01-01T00:00:00+00:00</time>
        <ele>2801.0</ele>
      </trkpt>
      <trkpt lat="46.892316" lon="10.686992">
        <time>1970-01-01T00:00:00+00:00</time>
        <ele>2800.0</ele>
      </trkpt>
      <trkpt lat="46.891786" lon="10.688105">
        <time>1970-01-01T00:00:00+00:00</time>
        <ele>2790.0</ele>
      </trkpt>
      <trkpt lat="46.891385" lon="10.68853">
        <time>1970-01-01T00:00:00+00:00</time>
        <ele>2780.0</ele>
      </trkpt>
      <trkpt lat="46.891279" lon="10.68897">
        <time>1970-01-01T00:00:00+00:00</time>
        <ele>2777.0</ele>
      </trkpt>
      <trkpt lat="46.891297" lon="10.689452">
        <time>1970-01-01T00:00:00+00:00</time>
        <ele>2772.0</ele>
      </trkpt>
      <trkpt lat="46.891878" lon="10.689705">
        <time>1970-01-01T00:00:00+00:00</time>
        <ele>2771.0</ele>
      </trkpt>
      <trkpt lat="46.891849" lon="10.690033">
        <time>1970-01-01T00:00:00+00:00</time>
        <ele>2766.0</ele>
      </trkpt>
      <trkpt lat="46.891957" lon="10.690648">
        <time>1970-01-01T00:00:00+00:00</time>
        <ele>2751.0</ele>
      </trkpt>
      <trkpt lat="46.892247" lon="10.690832">
        <time>1970-01-01T00:00:00+00:00</time>
        <ele>2752.0</ele>
      </trkpt>
      <trkpt lat="46.892238" lon="10.691252">
        <time>1970-01-01T00:00:00+00:00</time>
        <ele>2747.0</ele>
      </trkpt>
      <trkpt lat="46.892168" lon="10.691525">
        <time>1970-01-01T00:00:00+00:00</time>
        <ele>2742.0</ele>
      </trkpt>
      <trkpt lat="46.892159" lon="10.691802">
        <time>1970-01-01T00:00:00+00:00</time>
        <ele>2738.0</ele>
      </trkpt>
      <trkpt lat="46.892068" lon="10.692243">
        <time>1970-01-01T00:00:00+00:00</time>
        <ele>2730.0</ele>
      </trkpt>
      <trkpt lat="46.892098" lon="10.69246">
        <time>1970-01-01T00:00:00+00:00</time>
        <ele>2727.0</ele>
      </trkpt>
      <trkpt lat="46.892159" lon="10.692517">
        <time>1970-01-01T00:00:00+00:00</time>
        <ele>2728.0</ele>
      </trkpt>
      <trkpt lat="46.892121" lon="10.692631">
        <time>1970-01-01T00:00:00+00:00</time>
        <ele>2725.0</ele>
      </trkpt>
      <trkpt lat="46.89221" lon="10.693274">
        <time>1970-01-01T00:00:00+00:00</time>
        <ele>2710.0</ele>
      </trkpt>
      <trkpt lat="46.892441" lon="10.694261">
        <time>1970-01-01T00:00:00+00:00</time>
        <ele>2684.0</ele>
      </trkpt>
      <trkpt lat="46.892437" lon="10.695067">
        <time>1970-01-01T00:00:00+00:00</time>
        <ele>2666.0</ele>
      </trkpt>
      <trkpt lat="46.892493" lon="10.69557">
        <time>1970-01-01T00:00:00+00:00</time>
        <ele>2653.0</ele>
      </trkpt>
      <trkpt lat="46.892375" lon="10.695486">
        <time>1970-01-01T00:00:00+00:00</time>
        <ele>2651.0</ele>
      </trkpt>
      <trkpt lat="46.892436" lon="10.695799">
        <time>1970-01-01T00:00:00+00:00</time>
        <ele>2644.0</ele>
      </trkpt>
      <trkpt lat="46.892343" lon="10.695779">
        <time>1970-01-01T00:00:00+00:00</time>
        <ele>2640.0</ele>
      </trkpt>
      <trkpt lat="46.89236" lon="10.695894">
        <time>1970-01-01T00:00:00+00:00</time>
        <ele>2637.0</ele>
      </trkpt>
      <trkpt lat="46.892162" lon="10.695968">
        <time>1970-01-01T00:00:00+00:00</time>
        <ele>2624.0</ele>
      </trkpt>
      <trkpt lat="46.892172" lon="10.696102">
        <time>1970-01-01T00:00:00+00:00</time>
        <ele>2620.0</ele>
      </trkpt>
      <trkpt lat="46.892439" lon="10.696852">
        <time>1970-01-01T00:00:00+00:00</time>
        <ele>2595.0</ele>
      </trkpt>
      <trkpt lat="46.892696" lon="10.698111">
        <time>1970-01-01T00:00:00+00:00</time>
        <ele>2581.0</ele>
      </trkpt>
      <trkpt lat="46.892745" lon="10.698848">
        <time>1970-01-01T00:00:00+00:00</time>
        <ele>2576.0</ele>
      </trkpt>
      <trkpt lat="46.892033" lon="10.699738">
        <time>1970-01-01T00:00:00+00:00</time>
        <ele>2556.0</ele>
      </trkpt>
      <trkpt lat="46.89198" lon="10.699666">
        <time>1970-01-01T00:00:00+00:00</time>
        <ele>2553.0</ele>
      </trkpt>
      <trkpt lat="46.891872" lon="10.699714">
        <time>1970-01-01T00:00:00+00:00</time>
        <ele>2553.0</ele>
      </trkpt>
      <trkpt lat="46.89132" lon="10.700342">
        <time>1970-01-01T00:00:00+00:00</time>
        <ele>2552.0</ele>
      </trkpt>
      <trkpt lat="46.890828" lon="10.700436">
        <time>1970-01-01T00:00:00+00:00</time>
        <ele>2550.0</ele>
      </trkpt>
      <trkpt lat="46.890576" lon="10.701103">
        <time>1970-01-01T00:00:00+00:00</time>
        <ele>2554.0</ele>
      </trkpt>
      <trkpt lat="46.890348" lon="10.70139">
        <time>1970-01-01T00:00:00+00:00</time>
        <ele>2556.0</ele>
      </trkpt>
      <trkpt lat="46.889323" lon="10.702124">
        <time>1970-01-01T00:00:00+00:00</time>
        <ele>2542.0</ele>
      </trkpt>
      <trkpt lat="46.889021" lon="10.702581">
        <time>1970-01-01T00:00:00+00:00</time>
        <ele>2535.0</ele>
      </trkpt>
      <trkpt lat="46.88888" lon="10.702979">
        <time>1970-01-01T00:00:00+00:00</time>
        <ele>2529.0</ele>
      </trkpt>
      <trkpt lat="46.888079" lon="10.703419">
        <time>1970-01-01T00:00:00+00:00</time>
        <ele>2514.0</ele>
      </trkpt>
      <trkpt lat="46.88761" lon="10.704163">
        <time>1970-01-01T00:00:00+00:00</time>
        <ele>2497.0</ele>
      </trkpt>
      <trkpt lat="46.8875" lon="10.704109">
        <time>1970-01-01T00:00:00+00:00</time>
        <ele>2494.0</ele>
      </trkpt>
      <trkpt lat="46.88661" lon="10.705725">
        <time>1970-01-01T00:00:00+00:00</time>
        <ele>2451.0</ele>
      </trkpt>
      <trkpt lat="46.886669" lon="10.705892">
        <time>1970-01-01T00:00:00+00:00</time>
        <ele>2449.0</ele>
      </trkpt>
      <trkpt lat="46.886966" lon="10.705892">
        <time>1970-01-01T00:00:00+00:00</time>
        <ele>2450.0</ele>
      </trkpt>
      <trkpt lat="46.887152" lon="10.706262">
        <time>1970-01-01T00:00:00+00:00</time>
        <ele>2441.0</ele>
      </trkpt>
      <trkpt lat="46.887086" lon="10.706547">
        <time>1970-01-01T00:00:00+00:00</time>
        <ele>2430.0</ele>
      </trkpt>
      <trkpt lat="46.887013" lon="10.706557">
        <time>1970-01-01T00:00:00+00:00</time>
        <ele>2428.0</ele>
      </trkpt>
      <trkpt lat="46.887013" lon="10.706649">
        <time>1970-01-01T00:00:00+00:00</time>
        <ele>2424.0</ele>
      </trkpt>
      <trkpt lat="46.886716" lon="10.706949">
        <time>1970-01-01T00:00:00+00:00</time>
        <ele>2408.0</ele>
      </trkpt>
      <trkpt lat="46.886716" lon="10.707131">
        <time>1970-01-01T00:00:00+00:00</time>
        <ele>2402.0</ele>
      </trkpt>
      <trkpt lat="46.88687" lon="10.707244">
        <time>1970-01-01T00:00:00+00:00</time>
        <ele>2402.0</ele>
      </trkpt>
      <trkpt lat="46.88691" lon="10.707475">
        <time>1970-01-01T00:00:00+00:00</time>
        <ele>2397.0</ele>
      </trkpt>
      <trkpt lat="46.886796" lon="10.707555">
        <time>1970-01-01T00:00:00+00:00</time>
        <ele>2393.0</ele>
      </trkpt>
      <trkpt lat="46.886728" lon="10.707756">
        <time>1970-01-01T00:00:00+00:00</time>
        <ele>2388.0</ele>
      </trkpt>
      <trkpt lat="46.886694" lon="10.708301">
        <time>1970-01-01T00:00:00+00:00</time>
        <ele>2379.0</ele>
      </trkpt>
      <trkpt lat="46.886679" lon="10.708848">
        <time>1970-01-01T00:00:00+00:00</time>
        <ele>2372.0</ele>
      </trkpt>
      <trkpt lat="46.886624" lon="10.709004">
        <time>1970-01-01T00:00:00+00:00</time>
        <ele>2369.0</ele>
      </trkpt>
      <trkpt lat="46.886695" lon="10.709065">
        <time>1970-01-01T00:00:00+00:00</time>
        <ele>2369.0</ele>
      </trkpt>
      <trkpt lat="46.886461" lon="10.709596">
        <time>1970-01-01T00:00:00+00:00</time>
        <ele>2360.0</ele>
      </trkpt>
      <trkpt lat="46.886449" lon="10.709677">
        <time>1970-01-01T00:00:00+00:00</time>
        <ele>2359.0</ele>
      </trkpt>
      <trkpt lat="46.886389" lon="10.710103">
        <time>1970-01-01T00:00:00+00:00</time>
        <ele>2353.0</ele>
      </trkpt>
      <trkpt lat="46.886534" lon="10.710165">
        <time>1970-01-01T00:00:00+00:00</time>
        <ele>2352.0</ele>
      </trkpt>
      <trkpt lat="46.886606" lon="10.710361">
        <time>1970-01-01T00:00:00+00:00</time>
        <ele>2351.0</ele>
      </trkpt>
      <trkpt lat="46.886496" lon="10.710801">
        <time>1970-01-01T00:00:00+00:00</time>
        <ele>2346.0</ele>
      </trkpt>
      <trkpt lat="46.886547" lon="10.711085">
        <time>1970-01-01T00:00:00+00:00</time>
        <ele>2343.0</ele>
      </trkpt>
      <trkpt lat="46.886551" lon="10.711557">
        <time>1970-01-01T00:00:00+00:00</time>
        <ele>2336.0</ele>
      </trkpt>
      <trkpt lat="46.886457" lon="10.711635">
        <time>1970-01-01T00:00:00+00:00</time>
        <ele>2335.0</ele>
      </trkpt>
      <trkpt lat="46.886422" lon="10.711723">
        <time>1970-01-01T00:00:00+00:00</time>
        <ele>2334.0</ele>
      </trkpt>
    </trkseg>
  </trk>
</gpx>
